Date String (YYYY-MM-DD hh:mm:ss) UTC,Instrument flags,Ambient pressure (hPa),Sample flow (lpm),Bypass flow (lpm),Sample temperature (°C),Ambient temperature (°C),ASC tube jacket temperature (°C),LED temperature (°C),Box temperature (°C),Sample RH (%),Mass concentration (μg/m³),Mass concentration (μg/m³)
DateTimeUTC,F1_M11,P_M11,Q1_M11,Q2_M11,T1_M11,T2_M11,T3_M11,T4_M11,T5_M11,U1_M11,X0_M11,X2_M11
2021-08-15 01:00:00,,0830.8,5.00,0.00,29.1,28.1,00.0,38.0,31.0,29.7,0024.66,0014.08
2021-08-15 01:01:00,,0830.8,5.00,0.00,29.1,28.3,00.0,38.0,31.1,28.7,0024.62,0014.01
2021-08-15 01:02:00,,0830.7,5.00,0.00,29.2,28.2,00.0,38.0,31.1,28.6,0025.13,0013.99
2021-08-15 01:03:00,,0830.8,4.99,0.00,29.1,26.7,00.0,38.0,30.7,29.3,0025.42,0013.97
2021-08-15 01:04:00,,0830.8,5.01,0.00,29.0,25.7,00.0,38.0,30.4,30.4,0025.83,0013.99
2021-08-15 01:05:00,,0830.7,4.99,0.00,28.9,25.8,00.0,38.0,30.4,30.3,0025.51,0014.00
2021-08-15 01:06:00,,0830.7,5.00,0.00,28.9,26.2,00.0,38.0,30.5,31.2,0025.11,0013.96
2021-08-15 01:07:00,,0830.6,5.01,0.00,28.9,26.7,00.0,38.0,30.6,31.7,0024.78,0013.97
2021-08-15 01:08:00,,0830.6,4.99,0.00,28.9,27.1,00.0,38.0,30.7,32.0,0024.92,0013.96
2021-08-15 01:09:00,,0830.6,4.99,0.00,29.0,27.4,00.0,38.0,30.8,32.5,0025.08,0013.97
2021-08-15 01:10:00,,0830.6,5.00,0.00,29.0,27.7,00.0,38.0,30.9,32.4,0024.84,0013.96
2021-08-15 01:11:00,,0830.6,5.01,0.00,29.1,28.0,00.0,38.0,31.0,32.3,0025.60,0014.00
2021-08-15 01:12:00,,0830.6,4.99,0.00,29.1,28.2,00.0,38.0,31.1,31.5,0025.77,0014.07
2021-08-15 01:13:00,,0830.6,5.00,0.00,29.2,28.4,00.0,38.0,31.2,30.0,0025.77,0014.12
2021-08-15 01:14:00,,0830.5,5.01,0.00,29.2,27.9,00.0,38.1,31.0,29.3,0025.78,0014.20
2021-08-15 01:15:00,,0830.5,4.99,0.00,29.1,26.3,00.0,38.1,30.6,29.2,0026.47,0014.28
2021-08-15 01:16:00,,0830.5,5.01,0.00,29.0,25.7,00.0,38.1,30.4,29.6,0026.33,0014.30
2021-08-15 01:17:00,,0830.5,5.00,0.00,28.9,25.9,00.0,38.0,30.4,30.2,0026.18,0014.34
2021-08-15 01:18:00,,0830.4,5.00,0.00,28.9,26.4,00.0,38.0,30.5,30.4,0026.33,0014.36
2021-08-15 01:19:00,,0830.5,5.00,0.00,28.9,26.8,00.0,38.0,30.7,29.9,0025.09,0014.36
2021-08-15 01:20:00,,0830.5,5.01,0.00,29.0,27.2,00.0,38.0,30.8,29.9,0024.87,0014.35
2021-08-15 01:21:00,,0830.5,4.99,0.00,29.0,27.5,00.0,38.0,30.9,29.6,0025.11,0014.33
2021-08-15 01:22:00,,0830.5,5.01,0.00,29.1,27.8,00.0,38.0,31.0,29.5,0024.37,0014.34
2021-08-15 01:23:00,,0830.5,5.01,0.00,29.1,28.1,00.0,38.0,31.1,29.2,0024.58,0014.28
2021-08-15 01:24:00,,0830.5,4.98,0.00,29.2,28.3,00.0,38.1,31.2,28.7,0024.78,0014.23
2021-08-15 01:25:00,,0830.4,5.01,0.00,29.2,28.1,00.0,38.1,31.1,28.4,0026.43,0014.16
2021-08-15 01:26:00,,0830.4,5.00,0.00,29.1,26.6,00.0,38.1,30.7,27.5,0026.34,0014.08
2021-08-15 01:27:00,,0830.4,5.00,0.00,29.0,25.7,00.0,38.1,30.4,27.3,0025.67,0014.12
2021-08-15 01:28:00,,0830.4,4.99,0.00,28.9,25.8,00.0,38.1,30.5,27.1,0025.81,0014.17
2021-08-15 01:29:00,,0830.3,5.00,0.00,28.9,26.2,00.0,38.0,30.5,26.9,0025.51,0014.24
2021-08-15 01:30:00,,0830.3,5.00,0.00,28.9,26.7,00.0,38.0,30.6,26.8,0025.96,0014.27
2021-08-15 01:31:00,,0830.2,5.00,0.00,28.9,27.1,00.0,38.0,30.7,26.9,0026.83,0014.34
2021-08-15 01:32:00,,0830.2,5.00,0.00,29.0,27.5,00.0,38.0,30.8,26.6,0026.67,0014.45
2021-08-15 01:33:00,,0830.2,5.01,0.00,29.0,27.7,00.0,38.0,31.0,25.9,0026.42,0014.46
2021-08-15 01:34:00,,0830.2,5.00,0.00,29.1,28.0,00.0,38.0,31.1,26.1,0026.15,0014.54
2021-08-15 01:35:00,,0830.2,5.00,0.00,29.2,28.2,00.0,38.0,31.1,26.3,0025.76,0014.65
2021-08-15 01:36:00,,0830.3,5.00,0.00,29.2,28.4,00.0,38.1,31.2,26.1,0023.88,0014.74
2021-08-15 01:37:00,,0830.2,5.01,0.00,29.2,27.8,00.0,38.1,31.0,25.7,0023.42,0014.84
2021-08-15 01:38:00,,0830.3,5.00,0.00,29.1,26.2,00.0,38.1,30.5,25.4,0024.22,0014.88
2021-08-15 01:39:00,,0830.2,5.00,0.00,29.0,25.6,00.0,38.1,30.3,25.3,0024.54,0014.94
2021-08-15 01:40:00,,0830.2,5.01,0.00,28.9,26.0,00.0,38.1,30.5,25.1,0025.06,0014.94
2021-08-15 01:41:00,,0830.2,5.00,0.00,28.9,26.4,00.0,38.0,30.6,25.0,0024.86,0015.01
2021-08-15 01:42:00,,0830.3,4.99,0.00,28.9,26.8,00.0,38.0,30.7,25.2,0025.01,0015.07
2021-08-15 01:43:00,,0830.3,5.00,0.00,29.0,27.2,00.0,38.0,30.8,25.2,0024.61,0015.03
2021-08-15 01:44:00,,0830.4,4.99,0.00,29.0,27.6,00.0,38.0,30.9,25.1,0024.12,0015.04
2021-08-15 01:45:00,,0830.4,5.01,0.00,29.1,27.8,00.0,38.0,31.0,25.0,0024.54,0015.04
2021-08-15 01:46:00,,0830.5,4.99,0.00,29.1,28.1,00.0,38.0,31.1,25.6,0025.00,0014.96
2021-08-15 01:47:00,,0830.6,5.01,0.00,29.2,28.3,00.0,38.1,31.1,26.2,0025.34,0014.96
2021-08-15 01:48:00,,0830.6,5.00,0.00,29.3,28.4,00.0,38.1,31.2,25.7,0026.05,0015.04
2021-08-15 01:49:00,,0830.6,4.99,0.00,29.3,28.2,00.0,38.1,31.2,25.6,0025.28,0015.10
2021-08-15 01:50:00,,0830.5,5.01,0.00,29.2,26.6,00.0,38.1,30.7,24.9,0024.80,0015.05
2021-08-15 01:51:00,,0830.5,4.98,0.00,29.1,25.7,00.0,38.1,30.4,24.9,0024.10,0015.04
2021-08-15 01:52:00,,0830.6,5.01,0.00,29.0,25.9,00.0,38.1,30.5,25.1,0024.60,0015.06
2021-08-15 01:53:00,,0830.6,5.00,0.00,28.9,26.3,00.0,38.1,30.6,25.3,0024.57,0015.12
2021-08-15 01:54:00,,0830.6,5.00,0.00,28.9,26.7,00.0,38.0,30.7,24.8,0024.27,0015.17
2021-08-15 01:55:00,,0830.6,5.00,0.00,29.0,27.1,00.0,38.0,30.8,24.8,0024.40,0015.19
2021-08-15 01:56:00,,0830.6,5.01,0.00,29.0,27.5,00.0,38.0,30.9,24.6,0023.79,0015.22
2021-08-15 01:57:00,,0830.6,4.99,0.00,29.1,27.8,00.0,38.0,31.0,24.0,0023.37,0015.33
2021-08-15 01:58:00,,0830.6,5.01,0.00,29.1,28.0,00.0,38.1,31.1,23.9,0023.01,0015.36
2021-08-15 01:59:00,,0830.6,5.01,0.00,29.2,28.2,00.0,38.1,31.1,24.0,0021.82,0015.29
